Regional Weather Roundup
Issued by NWS Wakefield, VA

Home | Current Version | Previous Version | Graphics & Text | Print | Product List | Glossary On
Versions: 1 2 3 4 5 6 7 8 9 10 11 12 13 14 15 16 17 18 19 20 21 22 23 24 25 26 27 28 29 30 31 32 33 34 35 36 37 38 39 40 41 42 43 44 45 46 47 48 49 50
000
ASUS41 KAKQ 100015
RWRAKQ

REGIONAL WEATHER ROUNDUP
NATIONAL WEATHER SERVICE WAKEFIELD VA
700 PM EST FRI DEC 09 2016

Note: "fair" indicates few or no clouds below 12,000 feet with no
significant weather and/or obstructions to visibility. * = Denotes
station may not report precipitation (e.g., rain,snow,etc.),
thunder or fog.

VAZ042-051-052>054-056-100100-
NORTHERN VIRGINIA

CITY           SKY/WX    TMP DP  RH WIND       PRES   REMARKS
WASH NATIONAL  PTCLDY    34  16  47 W16       30.44R WCI  24
DULLES         PTCLDY    30  15  53 W6        30.43R
FORT BELVOIR   PTCLDY    33  15  48 NW9       30.43R
QUANTICO       PTCLDY    33  17  51 N9        30.45R
FREDERICKSBRG* CLEAR     33  18  53 NW6       30.44R
STAFFORD*      CLEAR     31  16  53 CALM      30.48R
WARRENTON      PTCLDY    31  11  43 W3        30.43R
CULPEPER*      CLEAR     32  15  49 CALM      30.44R
MANASSAS*      PTCLDY   N/A N/A N/A NW9       30.44
LEESBURG*      MOCLDY    32  23  69 W17G23    30.42S WCI  21
WINCHESTER     CLOUDY    30  14  51 W16       30.41R WCI  19
FRONT ROYAL*   MOCLDY    30  14  51 W7G20     30.41R
LURAY*         MOCLDY    30  18  59 W6        30.42S
$$

VAZ048-049-060>072-079>083-100100-
CENTRAL AND SOUTH CENTRAL VIRGINIA

CITY           SKY/WX    TMP DP  RH WIND       PRES   REMARKS
RICHMOND       CLEAR     33  12  41 NW6       30.41R
CHESTERFIELD*  FAIR      32   5  32 CALM      30.42R
PETERSBURG*    CLEAR     25  18  74 CALM      30.42R
HANOVER        CLEAR     32  12  43 VRB3      30.43R
TAPPAHANNOCK*  CLEAR     35   8  33 NE7       30.42R
QUINTON*       FAIR      32  15  50 CALM      30.42R
CHARLOTTSVILLE CLEAR     32  12  43 NW6       30.41R
GORDONSVILLE*  FAIR      32  13  45 NW3       30.42R
ORANGE*          N/A     32  14  47 CALM      30.44R
LOUISA*        CLEAR     36  16  44 NW8       30.40R
BUMPASS*       FAIR      31  14  48 CALM      30.42R
FARMVILLE*     CLEAR     32  16  50 CALM      30.41S
CREWE*         FAIR      31  16  54 W5        30.41R
FORT PICKETT*  FAIR      29  11  46 CALM      30.41R
CHASE CITY*    FAIR      30  14  49 CALM      30.43R
CLARKSVILLE*   FAIR      32  14  47 W3        30.43R
SOUTH HILL*    CLEAR     27  19  72 CALM      30.48R
LAWRENCEVILLE* FAIR      28  18  66 CALM      30.42R
EMPORIA*       CLEAR     27  18  69 CALM      30.45R
$$

VAZ088>098-100100-
SOUTHEAST VIRGINIA

CITY           SKY/WX    TMP DP  RH WIND       PRES   REMARKS
NORFOLK        CLEAR     38  15  39 NW7       30.40R
VIRGINIA BEACH PTCLDY    36  14  40 NW8       30.39R
NORFOLK NAVAL  PTCLDY    38  15  39 NW14      30.42R
WEST POINT*    CLEAR     33  13  42 NW3       30.43R
SALUDA*        FAIR      37  17  45 NW10G20   30.39R
NEWPORT NEWS   CLEAR     35  14  42 NW5       30.41R
LANGLEY AFB    CLEAR     35  13  40 NW7       30.40R
FORT EUSTIS    CLEAR     37  16  42 NW8       30.39R
WILLIAMSBURG*  CLEAR     34  19  55 CALM      30.43R
HR EXEC AP*    FAIR      27  18  69 W3        30.40R
FRANKLIN*      CLEAR     31  18  57 CALM      30.43R
US460-WAKEFLD  CLEAR     29  18  63 CALM      30.42R
$$

VAZ020-022-025-037-045-100100-
WEST CENTRAL AND SOUTHWEST VIRGINIA

CITY           SKY/WX    TMP DP  RH WIND       PRES   REMARKS
STAUNTON*      CLEAR     26  11  54 N5        30.41F
WAYNESBORO*    FAIR      26   9  49 NW6       30.38S
HOT SPRINGS VA CLOUDY    16   9  73 W6        30.22S
LYNCHBURG      CLEAR     28  13  53 VRB5      30.43R
DANVILLE       CLEAR     29  14  53 N6        30.45R
SOUTH BOSTON*  FAIR      31  11  43 NW6       30.45R
MARTINSVILLE   CLEAR     29  10  45 NW8       30.47R
ROANOKE        PTCLDY    27  11  51 CALM      30.45S
BLACKSBURG     CLEAR     23  11  61 W3        30.42R
DUBLIN*        CLEAR     23  13  65 W9        30.41R
MARION*        CLEAR     21  11  65 CALM      30.41R
HILLSVILLE*    CLEAR     20  11  69 CALM      30.35R
RICHLANDS*     FAIR      18  12  77 NW8       30.39S
WISE*          PTCLDY    19  12  73 CALM      30.40S
ABINGDON*      CLEAR     25  14  65 CALM      30.42S
$$

MDZ021>025-VAZ099-100-100100-
SOUTHERN MARYLAND AND THE DELMARVA PENINSULA

CITY           SKY/WX    TMP DP  RH WIND       PRES   REMARKS
PATUXENT RIVER CLEAR     34  17  50 NW16G23   30.40R WCI  24
BAY BRIDGE APT CLEAR     34  18  51 MISG      30.39R
LEONARDTOWN    CLEAR     32  18  55 W8G18     30.42R
DOVER          CLEAR     34  18  52 W14       30.34R WCI  24
GEORGETOWN     CLEAR     35  17  47 VRB5      30.36R
EASTON         CLEAR     36  18  48 NW10G17   30.41R
CAMBRIDGE      CLEAR     34  18  51 NW13G20   30.38R WCI  25
SALISBURY      CLEAR     34  18  52 W8        30.37R
OCEAN CITY     CLEAR     33  18  53 W5        30.36R
WALLOPS ISLAND CLEAR     34  20  56 NW8       30.38R
ACCOMACK*      CLEAR     37  17  43 NW17G24   30.38R
$$

NCZ012>017-030>032-100100-
NORTH CENTRAL AND EASTERN NORTH CAROLINA

CITY           SKY/WX    TMP DP  RH WIND       PRES   REMARKS
ROANOKE RAPIDS FAIR      32  18  55 W5        30.44R
RALEIGH        CLEAR     34  13  41 CALM      30.44R
ELIZABETH CITY CLEAR     33  17  51 NW8       30.41R
AHOSKIE*       PTCLDY    31  18  59 CALM      30.44R
EDENTON*       CLEAR     35  21  57 CALM      30.43R
CURRITUCK*     CLEAR     35  19  52 W3        30.42R
KILL DEVIL HLS CLEAR     37  22  53 NW5       30.39R
MANTEO         CLEAR     38  18  45 N10G16    30.40R
CAPE HATTERAS  CLEAR     39  21  48 VRB5      30.40R
TARBORO*       NOT AVBL
GOLDSBORO      CLEAR     35  15  43 NW5       30.42R
WASHINGTON     CLEAR     34  18  51 NW3       30.43R
GREENVILLE     CLEAR     36  19  51 CALM      30.43R
NEW BERN       CLEAR     34  20  56 NW3       30.43R
WILMINGTON     CLEAR     36  23  59 N5        30.43R
$$

VAZ048-100100-
ELSEWHERE

CITY           SKY/WX    TMP DP  RH WIND       PRES   REMARKS
HARRISBURG PA  PTCLDY    32  21  64 W13       30.33R WCI  22
BALTIMORE      PTCLDY    31  16  54 W13       30.38R WCI  21
ANNAPOLIS      CLEAR     36  18  48 W8        30.39R
ANDREWS AFB    PTCLDY    32  15  49 W13G21    30.40R WCI  23
PHILADELPHIA   MOCLDY    35  17  47 W15       30.32R
HENDERSON NC   CLEAR     29  11  46 NW3       30.43R
GREENSBORO     CLEAR     32  13  45 N3        30.41S
ROCKY MOUNT    CLEAR     30  20  66 NW3       30.44R
$$

VAZ100-100100-
MARINE

STATION/POSITION TIME  TEMP    WIND        PRES    WAVE   SWELL
                       AIR SEA DIR/SP/G            HT/PER HT/PER
                 (UTC) (F)     (DEG/KT/KT) (MB)    (FT/S) (FT/S)
BRANDYWINE LGT   2348   36     320/ 18/ 28   N/A
CAPE MAY NJ      2348   37 42  310/ 23/ 30 1026.4R
LEWES DE         2348   37 44  310/ 17/ 20 1027.5R
OCEAN-CITY-INLET 2348   36 48  300/  5/  7 1028.2R
WACHAPREAGUE VA  2348   37 44  290/  5/ 11 1028.5R
THOMAS POINT MD  0000   35 46  300/ 16/ 18   N/A
GOOSES REEF MD   2350   36     290/ 19/ 23 1030.3R
COVE POINT MD    2348   35     320/ 17/ 23 1029.9R
SOLOMONS ISLAND  2348   36 48  290/ 10/ 17   N/A
BISHOPS HEAD MD  2348   37 38  300/ 21/ 25 1029.5R
PINEY POINT MD   2348          350/ 26/ 28   N/A
POTOMAC MD       2350   38     330/ 21/ 25 1028.8R
CAMBRIDGE MD     2348   37 44  300/ 15/ 22 1028.1R
LEWISETTA VA     2348   37 45  350/ 11/ 16 1029.1R
RAPPAHANNOCK LGT 2348          320/ 22/ 26 1029.0R
STINGRAY PT      2350   39     340/ 16/ 19 1029.5R
YORK RVR RNG VA  2348   38     330/ 11/ 12 1028.9R
YORKTOWN VA      2348   39 49  330/ 13/ 17 1029.1R
JAMESTOWN VA     2350   38     320/  8/ 12   N/A
DOMINION TERM VA 2348   40     300/ 12/ 15 1029.3R
KIPTOPEKE VA     2348      49                N/A
CHES BAY BRIDGE  2348   40 50  310/ 17/ 20 1029.0R
CAPE HENRY VA    2348   40     310/ 19/ 24   N/A
WILLOUBY STN VA  2348   39     310/ 12/ 14 1030.2R
S CRANEY ISL VA  2348   37     290/  5/  8 1029.1R
CAPE HENRY BUOY  2342      53                N/A     4/ 4
1ST LANDING BUOY 2350   41                 1029.4R
CAPE CHARLES BUO 2356      52                N/A     3/ 3
OFFSHORE WE BUOY 2351      55                N/A     6/ 5
64NM E OF VA BCH 2350   42 58  320/ 21/ 27 1027.3R   7/ 6   2/16
DUCK PIER NC     2348   39 52  300/ 11/ 14 1028.9R
44100 DUCK FRF   2305      55                N/A     5/ 7
OREGON INLET NC  2348          340/  6/  9   N/A
HATTERAS NC      2348   41 54  330/ 13/ 19 1028.9R
DIAMOND SHLS NC  2350   42 77  350/ 17/ 23 1029.0R   5/10   5/10
CAPE LOOKOUT NC  2300   40     340/ 14/ 17 1029.0R
$$



USA.gov is the U.S. government's official web portal to all federal, state and local government web resources and services.